Nausori, Fiji

3:27 PM +12 on April 30, 2017 (GMT +1200)
Nausori International

Weather History for NFNA - January, 2005

Change the Weather History Date:

Friday, January 28, 2005

  Actual Average Record
Temperature  
Mean Temperature 80 °F -  
Max Temperature 86 °F 88 °F - ()
Min Temperature 74 °F 75 °F - ()
Cooling Degree Days 15    
Growing Degree Days 30 (Base 50)    
Moisture  
Dew Point 76 °F    
Average Humidity 87    
Maximum Humidity 100    
Minimum Humidity 68    
Precipitation  
Precipitation 0.12 in 0.38 in - ()
Sea Level Pressure  
Sea Level Pressure 29.67 in    
Wind  
Wind Speed 1 mph ()    
Max Wind Speed 7 mph    
Max Gust Speed -    
Visibility 12.9 miles    
Events Rain    
T = Trace of Precipitation, MM = Missing Value Source: Averaged Metar Reports

Daily Weather History Graph

Daily Weather History Graph

Search for Another Location

Airport or City:

Trip Planner

Search our weather history database for the weather conditions in past years. The results will help you decide how hot, cold, wet, or windy it might be!

Date:

Astronomy

Jan. 28, 2005 Rise Set
Actual Time 5:50 AM +12 6:46 PM +12
Civil Twilight 5:26 AM +12 7:10 PM +12
Nautical Twilight 4:59 AM +12 7:37 PM +12
Astronomical Twilight 4:31 AM +12 8:05 PM +12
Moon 8:43 PM +12 (1/28) 7:48 AM +12 (1/28)
Length of Visible Light 13h 43m
Length of Day
12h 56m
Waning Gibbous, 94% of the Moon is Illuminated
Jan 28
Waning Gibbous
Feb 2
Last Quarter
Feb 9
New
Feb 16
First Quarter
Feb 24
Full

Hourly Weather History & Observations

Time (+12) Temp. Heat Index Dew Point Humidity Pressure Visibility Wind Dir Wind Speed Gust Speed Precip Events Conditions
12:00 AM 77 °F - 75 °F 90% 29.72 in 12 mi Calm Calm - -   Partly Cloudy
12:00 AM 77.0 °F - 75.2 °F 94% 29.71 in 24.9 mi Calm Calm - N/A   Mostly Cloudy
1:00 AM 77.0 °F - 75.2 °F 94% 29.68 in 24.9 mi Calm Calm - N/A   Mostly Cloudy
2:00 AM 77.0 °F - 75.2 °F 94% 29.65 in 24.9 mi Calm Calm - N/A   Mostly Cloudy
3:00 AM 76 °F - 75 °F 96% 29.65 in 12 mi Calm Calm - -   Partly Cloudy
3:00 AM 75.2 °F - 75.2 °F 100% 29.62 in 24.9 mi Calm Calm - N/A   Mostly Cloudy
4:00 AM 75.2 °F - 75.2 °F 100% 29.62 in 24.9 mi Calm Calm - N/A   Mostly Cloudy
5:00 AM 75.2 °F - 75.2 °F 100% 29.65 in 24.9 mi Calm Calm - N/A   Mostly Cloudy
6:00 AM 75 °F - 75 °F 100% 29.69 in 12 mi Calm Calm - - Rain Light Rain Showers
6:00 AM 75.2 °F - 75.2 °F 100% 29.68 in 24.9 mi Calm Calm - N/A   Scattered Clouds
7:00 AM 77.0 °F - 75.2 °F 94% 29.71 in 31.1 mi Calm Calm - N/A   Mostly Cloudy
8:00 AM 77.0 °F - 75.2 °F 94% 29.71 in 31.1 mi Calm Calm - N/A   Mostly Cloudy
9:00 AM 81 °F - 76 °F 80% 29.72 in 31 mi Calm Calm - -   Partly Cloudy
9:00 AM 80.6 °F 86.2 °F 75.2 °F 84% 29.71 in 31.1 mi Calm Calm - N/A   Mostly Cloudy
10:00 AM 82.4 °F 90.9 °F 77.0 °F 84% 29.68 in 31.1 mi South 5.8 mph - N/A   Mostly Cloudy
11:00 AM 84.2 °F 94.1 °F 77.0 °F 79% 29.68 in 31.1 mi South 5.8 mph - N/A   Mostly Cloudy
12:00 PM 85 °F - 76 °F 68% 29.69 in 31 mi Calm Calm - -   Partly Cloudy
12:00 PM 86.0 °F 96.9 °F 77.0 °F 74% 29.68 in 31.1 mi Calm Calm - N/A   Mostly Cloudy
1:00 PM 86.0 °F 99.3 °F 78.8 °F 79% 29.65 in 31.1 mi SSE 6.9 mph - N/A   Mostly Cloudy
2:00 PM 86.0 °F 95.1 °F 75.2 °F 70% 29.65 in 31.1 mi Calm Calm - N/A   Mostly Cloudy
3:00 PM 86.0 °F 95.1 °F 75.2 °F 70% 29.62 in 31.1 mi SE 5.8 mph - N/A   Scattered Clouds
4:00 PM 86.0 °F 96.9 °F 77.0 °F 74% 29.62 in 31.1 mi SE 4.6 mph - N/A   Mostly Cloudy
5:00 PM 84.2 °F 92.3 °F 75.2 °F 74% 29.62 in 31.1 mi Calm Calm - N/A   Mostly Cloudy
6:00 PM 81 °F - 77 °F 83% 29.64 in 12 mi Calm Calm - - Rain Light Rain Showers
6:00 PM 80.6 °F 87.1 °F 77.0 °F 89% 29.62 in 12.4 mi Calm Calm - N/A Rain Light Rain Showers
7:00 PM 78.8 °F - 77.0 °F 94% 29.65 in 12.4 mi Calm Calm - N/A Rain Light Rain Showers
8:00 PM 82.4 °F 89.5 °F 75.2 °F 79% 29.68 in 24.9 mi Calm Calm - N/A   Overcast
9:00 PM 78 °F - 76 °F 91% 29.69 in 12 mi Calm Calm - -   Overcast
9:00 PM 77.0 °F - 75.2 °F 94% 29.68 in 18.6 mi Calm Calm - N/A   Overcast
11:00 PM 77.0 °F - 77.0 °F 100% 29.68 in 31.1 mi Calm Calm - N/A   Overcast